Flag for India

Past Weather in Manali, Himachal Pradesh, India — Yesterday and Last 2 Weeks

Now
84 °F

Fog.


Feels Like: 94 °F
Forecast: 74 / 53 °F
Wind: 2 mph from North

Location: Amritsar Airport
Current Time: Sep 21, 2020 at 9:53:38 am
Latest Report: Sep 21, 2020 at 9:00 am
Visibility: 2 mi
Pressure29.62 "Hg(23.91 "Hg at 1894m altitude)
Humidity: 79%
Dew Point: 77 °F
Location of ManaliLocation

Past Weather in Manali — Graph

°F

Manali Temperature Yesterday

Maximum temperature yesterday: 95 °F (at 12:30 pm)
Minimum temperature yesterday: 79 °F (at 5:00 am)
Average temperature yesterday: 86 °F

High & Low Weather Summary for the Past Weeks

 TemperatureHumidityPressure
High97 °F (Sep 13, 1:30 pm)100% (Sep 7, 4:00 am)29.77 "Hg (Sep 7, 4:00 am)
Low73 °F (Sep 7, 6:30 am)50% (Sep 13, 1:30 pm)29.53 "Hg (Sep 10, 7:30 pm)
Average87 °F74%29.65 "Hg
* Reported Sep 6 8:30 am — Sep 21 9:00 am, Manali. Weather by CustomWeather, © 2020

Note: Actual official high and low records may vary slightly from our data, if they occured in-between our weather recording intervals... More about our weather records

Manali Weather History for the Previous 24 Hours

Scroll right to see more
 ConditionsComfort  
Time TempWeatherWind HumidityBarometerVisibility
9:00 am
Mon, Sep 21
84 °FFog.2 mph79%29.62 "Hg2 mi
7:00 am75 °FFog.No wind94%29.59 "Hg1 mi
6:00 am75 °FFog.2 mph94%29.56 "Hg1 mi
5:00 am77 °FFog.No wind89%29.56 "Hg2 mi
4:30 am77 °FFog.No wind89%29.56 "Hg2 mi
4:00 am77 °FFog.No wind89%29.56 "Hg2 mi
3:00 am79 °FFog.No wind89%29.56 "Hg2 mi
2:30 am79 °FFog.No wind84%29.56 "Hg2 mi
1:30 am81 °FFog.No wind84%29.56 "Hg2 mi
1:00 am81 °FFog.No wind84%29.56 "Hg2 mi
12:30 am82 °FFog.No wind79%29.56 "Hg2 mi
12:00 am82 °FFog.No wind79%29.56 "Hg2 mi
11:30 pm
Sun, Sep 20
81 °FFog.2 mph84%29.56 "Hg2 mi
11:00 pm82 °FFog.No wind79%29.56 "Hg2 mi
10:30 pm82 °FFog.No wind79%29.56 "Hg2 mi
10:00 pm84 °FFog.No wind74%29.56 "Hg2 mi
9:30 pm84 °FFog.2 mph74%29.53 "Hg2 mi
9:00 pm84 °FFog.No wind74%29.53 "Hg2 mi
8:30 pm84 °FFog.No wind79%29.53 "Hg2 mi
8:00 pm84 °FHaze.No wind74%29.53 "Hg2 mi
7:30 pm86 °FHaze.No wind70%29.53 "Hg2 mi
7:00 pm86 °FHaze.2 mph70%29.53 "Hg2 mi
6:30 pm88 °FHaze.2 mph66%29.53 "Hg2 mi
6:00 pm90 °FHaze.5 mph63%29.53 "Hg2 mi
5:30 pm91 °FHaze.7 mph59%29.53 "Hg2 mi
4:30 pm93 °FHaze.10 mph56%29.56 "Hg2 mi
4:00 pm95 °FHaze.12 mph53%29.56 "Hg2 mi
3:30 pm95 °FHaze.12 mph53%29.56 "Hg2 mi
3:00 pm95 °FHaze.12 mph53%29.56 "Hg2 mi
2:30 pm95 °FHaze.10 mph53%29.59 "Hg2 mi
1:30 pm95 °FHaze.9 mph53%29.62 "Hg2 mi
1:00 pm95 °FHaze.9 mph53%29.62 "Hg2 mi
12:30 pm95 °FHaze.9 mph53%29.65 "Hg2 mi
11:30 am93 °FHaze.9 mph59%29.65 "Hg2 mi
11:00 am91 °FHaze.8 mph63%29.68 "Hg2 mi
10:30 am91 °FHaze.6 mph63%29.68 "Hg2 mi
10:00 am90 °FHaze.2 mph67%29.68 "Hg2 mi
9:30 am88 °FHaze.2 mph70%29.68 "Hg2 mi
9:00 am88 °FHaze.No wind70%29.68 "Hg2 mi
Weather by CustomWeather, © 2020

See weather overview